SHT9Y EGPH-EGLL

Flight info

Callsign SHT9Y
Flight time 0h 58m
Altitude 35000
Route N0442F350 GOSAM P600 FENIK L612 NAVSO DCT AKOMU DCT VAMEB DCT NUGRA
Aircraft A320/M-SDE3FGIKRWXY/S

Departure

Time 2026-05-04 18:24
Airport Edinburgh Airport (EGPH)

Arrival

Time 2026-05-04 19:22
Airport London Heathrow Airport (EGLL)
Time Latitude Longitude Altitude Speed Heading
2026-05-04 17:52 55.94939 -3.36355 113 ft 0 kts 148°
2026-05-04 17:57 55.94939 -3.36356 117 ft 0 kts 148°
2026-05-04 18:16 55.94957 -3.36375 112 ft 4 kts 149°
2026-05-04 18:16 55.94980 -3.36400 113 ft 4 kts 149°
2026-05-04 18:17 55.94999 -3.36420 113 ft 0 kts 148°
2026-05-04 18:19 55.94998 -3.36415 115 ft 1 kts 122°
2026-05-04 18:19 55.95003 -3.36407 115 ft 1 kts 50°
2026-05-04 18:19 55.95050 -3.36394 114 ft 9 kts
2026-05-04 18:20 55.95112 -3.36355 116 ft 10 kts 52°
2026-05-04 18:20 55.95151 -3.36232 115 ft 12 kts 60°
2026-05-04 18:20 55.95198 -3.36093 115 ft 14 kts 59°
2026-05-04 18:20 55.95250 -3.35937 114 ft 16 kts 59°
2026-05-04 18:21 55.95310 -3.35763 114 ft 17 kts 59°
2026-05-04 18:21 55.95373 -3.35579 113 ft 17 kts 59°
2026-05-04 18:21 55.95421 -3.35438 115 ft 10 kts 56°
2026-05-04 18:21 55.95471 -3.35410 114 ft 8 kts 334°
2026-05-04 18:22 55.95498 -3.35442 114 ft 0 kts 327°
2026-05-04 18:22 55.95511 -3.35457 113 ft 4 kts 327°
2026-05-04 18:22 55.95550 -3.35502 112 ft 10 kts 324°
2026-05-04 18:23 55.95553 -3.35619 112 ft 12 kts 239°
2026-05-04 18:23 55.95501 -3.35768 113 ft 27 kts 238°
2026-05-04 18:23 55.95281 -3.36424 110 ft 93 kts 238°
2026-05-04 18:23 55.94858 -3.37678 114 ft 141 kts 239°
2026-05-04 18:24 55.94330 -3.39102 693 ft 128 kts 239°
2026-05-04 18:24 55.93857 -3.40438 1151 ft 128 kts 242°
2026-05-04 18:24 55.93386 -3.41823 1452 ft 138 kts 244°
2026-05-04 18:24 55.92847 -3.43420 1619 ft 161 kts 242°
2026-05-04 18:25 55.92212 -3.45300 1694 ft 193 kts 241°
2026-05-04 18:25 55.91477 -3.47463 2000 ft 216 kts 242°
2026-05-04 18:25 55.90673 -3.49895 2413 ft 238 kts 248°
2026-05-04 18:25 55.90263 -3.52738 3153 ft 243 kts 262°
2026-05-04 18:26 55.89966 -3.55725 4039 ft 247 kts 263°
2026-05-04 18:26 55.89662 -3.58789 4872 ft 254 kts 263°
2026-05-04 18:26 55.89352 -3.61907 5749 ft 257 kts 262°
2026-05-04 18:26 55.89037 -3.65077 6577 ft 262 kts 261°
2026-05-04 18:27 55.88716 -3.68276 7405 ft 263 kts 262°
2026-05-04 18:27 55.88389 -3.71508 8244 ft 265 kts 261°
2026-05-04 18:27 55.88060 -3.74757 9068 ft 268 kts 261°
2026-05-04 18:27 55.87725 -3.78043 9894 ft 271 kts 261°
2026-05-04 18:28 55.87388 -3.81389 10436 ft 283 kts 261°
2026-05-04 18:28 55.87035 -3.84979 10625 ft 305 kts 261°
2026-05-04 18:28 55.86659 -3.88783 10898 ft 322 kts 261°
2026-05-04 18:28 55.86260 -3.92794 11509 ft 327 kts 261°
2026-05-04 18:29 55.85863 -3.96754 12158 ft 331 kts 261°
2026-05-04 18:29 55.85451 -4.00802 12819 ft 334 kts 261°
2026-05-04 18:29 55.85036 -4.04897 13500 ft 338 kts 261°
2026-05-04 18:29 55.84593 -4.09025 14133 ft 342 kts 257°
2026-05-04 18:30 55.82018 -4.16172 15297 ft 358 kts 221°
2026-05-04 18:30 55.79971 -4.18734 15890 ft 361 kts 218°
2026-05-04 18:30 55.77891 -4.21268 16480 ft 364 kts 218°
2026-05-04 18:31 55.75756 -4.23726 17064 ft 369 kts 211°
2026-05-04 18:31 55.73340 -4.25388 17653 ft 378 kts 197°
2026-05-04 18:31 55.70697 -4.25934 18232 ft 388 kts 182°
2026-05-04 18:31 55.67998 -4.25233 18730 ft 398 kts 166°
2026-05-04 18:32 55.65414 -4.23352 19264 ft 404 kts 157°
2026-05-04 18:32 55.62899 -4.21069 19828 ft 408 kts 154°
2026-05-04 18:32 55.60406 -4.18612 20376 ft 411 kts 153°
2026-05-04 18:32 55.57926 -4.16077 20919 ft 414 kts 153°
2026-05-04 18:33 55.55426 -4.13511 21439 ft 416 kts 153°
2026-05-04 18:33 55.52905 -4.10959 21947 ft 419 kts 154°
2026-05-04 18:33 55.50359 -4.08429 22440 ft 421 kts 154°
2026-05-04 18:33 55.47787 -4.05914 22915 ft 424 kts 154°
2026-05-04 18:34 55.45199 -4.03408 23358 ft 426 kts 154°
2026-05-04 18:34 55.42592 -4.00897 23842 ft 427 kts 154°
2026-05-04 18:34 55.39981 -3.98385 24244 ft 429 kts 154°
2026-05-04 18:34 55.37356 -3.95855 24623 ft 431 kts 154°
2026-05-04 18:35 55.34752 -3.93339 24976 ft 434 kts 154°
2026-05-04 18:35 55.32098 -3.90780 25333 ft 436 kts 154°
2026-05-04 18:35 55.29434 -3.88217 25684 ft 438 kts 154°
2026-05-04 18:35 55.26748 -3.85646 26021 ft 441 kts 154°
2026-05-04 18:36 55.24043 -3.83060 26372 ft 443 kts 154°
2026-05-04 18:36 55.21331 -3.80485 26714 ft 445 kts 155°
2026-05-04 18:36 55.18581 -3.77998 27053 ft 446 kts 155°
2026-05-04 18:36 55.15793 -3.75590 27414 ft 447 kts 156°
2026-05-04 18:37 55.12984 -3.73227 27758 ft 449 kts 156°
2026-05-04 18:37 55.10153 -3.70862 28084 ft 452 kts 156°
2026-05-04 18:37 55.07310 -3.68477 28407 ft 454 kts 156°
2026-05-04 18:37 55.04451 -3.66057 28724 ft 456 kts 156°
2026-05-04 18:38 55.01598 -3.63622 29103 ft 457 kts 156°
2026-05-04 18:38 54.98746 -3.61183 29560 ft 456 kts 156°
2026-05-04 18:38 54.95939 -3.58783 30021 ft 455 kts 156°
2026-05-04 18:38 54.93102 -3.56363 30427 ft 454 kts 155°
2026-05-04 18:39 54.90271 -3.53956 30837 ft 452 kts 155°
2026-05-04 18:39 54.87452 -3.51565 31247 ft 451 kts 155°
2026-05-04 18:39 54.84635 -3.49184 31667 ft 450 kts 155°
2026-05-04 18:39 54.81816 -3.46804 32082 ft 449 kts 155°
2026-05-04 18:40 54.79017 -3.44447 32503 ft 447 kts 155°
2026-05-04 18:40 54.76215 -3.42089 32917 ft 446 kts 155°
2026-05-04 18:40 54.73428 -3.39745 33343 ft 445 kts 155°
2026-05-04 18:40 54.70638 -3.37404 33764 ft 444 kts 155°
2026-05-04 18:41 54.67855 -3.35072 34167 ft 443 kts 155°
2026-05-04 18:41 54.65084 -3.32752 34494 ft 442 kts 155°
2026-05-04 18:41 54.62317 -3.30438 34808 ft 442 kts 155°
2026-05-04 18:41 54.59547 -3.28128 35019 ft 443 kts 155°
2026-05-04 18:42 54.56755 -3.25806 35058 ft 449 kts 155°
2026-05-04 18:42 54.51085 -3.21091 35061 ft 454 kts 155°
2026-05-04 18:43 54.45418 -3.16394 35047 ft 455 kts 154°
2026-05-04 18:43 54.39721 -3.11688 35055 ft 455 kts 154°
2026-05-04 18:44 54.34005 -3.06976 35056 ft 455 kts 154°
2026-05-04 18:44 54.28287 -3.02273 35047 ft 456 kts 154°
2026-05-04 18:45 54.22554 -2.97568 35048 ft 457 kts 154°
2026-05-04 18:45 54.16819 -2.92910 35065 ft 456 kts 154°
2026-05-04 18:46 54.11024 -2.88517 35079 ft 455 kts 156°
2026-05-04 18:46 54.05165 -2.84363 35086 ft 455 kts 156°
2026-05-04 18:47 53.99330 -2.80388 35078 ft 455 kts 161°
2026-05-04 18:47 53.93283 -2.77165 35083 ft 455 kts 161°
2026-05-04 18:48 53.87241 -2.73967 35083 ft 454 kts 161°
2026-05-04 18:48 53.81203 -2.70790 35085 ft 454 kts 161°
2026-05-04 18:49 53.75166 -2.67626 35083 ft 454 kts 161°
2026-05-04 18:49 53.69124 -2.64461 35086 ft 454 kts 161°
2026-05-04 18:50 53.63131 -2.61329 35083 ft 453 kts 161°
2026-05-04 18:50 53.57106 -2.58180 35085 ft 453 kts 161°
2026-05-04 18:51 53.51080 -2.55049 35087 ft 453 kts 161°
2026-05-04 18:51 53.45064 -2.51926 35085 ft 452 kts 161°
2026-05-04 18:52 53.39048 -2.48810 35074 ft 452 kts 161°
2026-05-04 18:52 53.33033 -2.45711 35075 ft 452 kts 161°
2026-05-04 18:53 53.27016 -2.42634 35075 ft 452 kts 161°
2026-05-04 18:53 53.21002 -2.39561 35085 ft 452 kts 161°
2026-05-04 18:54 53.14990 -2.36496 35084 ft 451 kts 161°
2026-05-04 18:54 53.08986 -2.33436 35082 ft 451 kts 161°
2026-05-04 18:55 53.03053 -2.30111 35082 ft 448 kts 153°
2026-05-04 18:55 52.95094 -2.22090 35056 ft 445 kts 146°
2026-05-04 18:56 52.92476 -2.19342 34810 ft 444 kts 146°
2026-05-04 18:56 52.89869 -2.16617 34569 ft 443 kts 146°
2026-05-04 18:56 52.87263 -2.13903 34332 ft 443 kts 146°
2026-05-04 18:56 52.84651 -2.11189 33988 ft 442 kts 146°
2026-05-04 18:57 52.82068 -2.08506 33023 ft 447 kts 145°
2026-05-04 18:57 52.79426 -2.05760 32195 ft 448 kts 145°
2026-05-04 18:57 52.76789 -2.03019 31535 ft 446 kts 145°
2026-05-04 18:57 52.74175 -2.00306 31027 ft 441 kts 147°
2026-05-04 18:58 52.71586 -1.97620 30475 ft 438 kts 148°
2026-05-04 18:58 52.69031 -1.94975 29883 ft 434 kts 148°
2026-05-04 18:58 52.66483 -1.92342 29327 ft 429 kts 149°
2026-05-04 18:58 52.63971 -1.89748 28777 ft 424 kts 149°
2026-05-04 18:59 52.61486 -1.87184 28235 ft 419 kts 149°
2026-05-04 18:59 52.59025 -1.84651 27712 ft 415 kts 149°
2026-05-04 18:59 52.56577 -1.82136 27177 ft 412 kts 150°
2026-05-04 18:59 52.54154 -1.79652 26663 ft 408 kts 150°
2026-05-04 19:00 52.51785 -1.77228 26154 ft 405 kts 150°
2026-05-04 19:00 52.49397 -1.74788 25648 ft 402 kts 151°
2026-05-04 19:00 52.47021 -1.72363 25163 ft 400 kts 151°
2026-05-04 19:00 52.44668 -1.69963 24674 ft 397 kts 152°
2026-05-04 19:01 52.42322 -1.67572 24204 ft 395 kts 152°
2026-05-04 19:01 52.39991 -1.65200 23739 ft 394 kts 152°
2026-05-04 19:01 52.37667 -1.62835 23247 ft 391 kts 152°
2026-05-04 19:01 52.35367 -1.60495 22800 ft 388 kts 152°
2026-05-04 19:02 52.33853 -1.58952 22499 ft 386 kts 152°
2026-05-04 19:02 52.31576 -1.56633 22063 ft 383 kts 152°
2026-05-04 19:02 52.29321 -1.54343 21609 ft 380 kts 152°
2026-05-04 19:02 52.27080 -1.52079 21166 ft 377 kts 151°
2026-05-04 19:03 52.24849 -1.49835 20708 ft 375 kts 151°
2026-05-04 19:03 52.22634 -1.47609 20242 ft 372 kts 150°
2026-05-04 19:03 52.20561 -1.45096 19828 ft 371 kts 141°
2026-05-04 19:03 52.18633 -1.42373 19464 ft 369 kts 141°
2026-05-04 19:04 52.16689 -1.39648 19096 ft 367 kts 141°
2026-05-04 19:04 52.14753 -1.36950 18719 ft 365 kts 141°
2026-05-04 19:04 52.12827 -1.34275 18344 ft 363 kts 141°
2026-05-04 19:04 52.10905 -1.31607 17944 ft 362 kts 141°
2026-05-04 19:05 52.08991 -1.28951 17570 ft 361 kts 141°
2026-05-04 19:05 52.07087 -1.26314 17209 ft 360 kts 141°
2026-05-04 19:05 52.05184 -1.23681 16831 ft 358 kts 141°
2026-05-04 19:05 52.03292 -1.21061 16473 ft 357 kts 141°
2026-05-04 19:06 52.01407 -1.18451 16102 ft 355 kts 141°
2026-05-04 19:06 51.99533 -1.15861 15738 ft 354 kts 141°
2026-05-04 19:06 51.97685 -1.13308 15383 ft 353 kts 141°
2026-05-04 19:06 51.95819 -1.10730 15026 ft 352 kts 141°
2026-05-04 19:07 51.93948 -1.08149 14294 ft 359 kts 141°
2026-05-04 19:07 51.92057 -1.05544 13951 ft 353 kts 141°
2026-05-04 19:07 51.90204 -1.02993 13643 ft 346 kts 140°
2026-05-04 19:07 51.88388 -1.00498 13316 ft 339 kts 141°
2026-05-04 19:08 51.86603 -0.98043 12963 ft 333 kts 141°
2026-05-04 19:08 51.85053 -0.95288 12644 ft 330 kts 123°
2026-05-04 19:08 51.83990 -0.92020 12310 ft 326 kts 117°
2026-05-04 19:08 51.82997 -0.88758 11978 ft 322 kts 117°
2026-05-04 19:09 51.82021 -0.85555 11636 ft 310 kts 117°
2026-05-04 19:09 51.81088 -0.82495 11313 ft 296 kts 117°
2026-05-04 19:09 51.80197 -0.79567 10985 ft 285 kts 117°
2026-05-04 19:09 51.79339 -0.76754 10664 ft 274 kts 118°
2026-05-04 19:10 51.78500 -0.74022 10355 ft 271 kts 118°
2026-05-04 19:10 51.77658 -0.71297 10040 ft 271 kts 117°
2026-05-04 19:10 51.76815 -0.68568 9699 ft 272 kts 118°
2026-05-04 19:10 51.75970 -0.65836 9360 ft 272 kts 118°
2026-05-04 19:11 51.75135 -0.63117 9024 ft 272 kts 118°
2026-05-04 19:11 51.74295 -0.60411 8796 ft 268 kts 119°
2026-05-04 19:11 51.73464 -0.57774 8679 ft 259 kts 121°
2026-05-04 19:11 51.72270 -0.55703 8485 ft 250 kts 151°
2026-05-04 19:12 51.70647 -0.54897 8164 ft 244 kts 182°
2026-05-04 19:12 51.67804 -0.57301 7495 ft 237 kts 229°
2026-05-04 19:12 51.66720 -0.59308 7158 ft 238 kts 231°
2026-05-04 19:13 51.65659 -0.61327 6895 ft 235 kts 231°
2026-05-04 19:13 51.64604 -0.63346 6577 ft 235 kts 231°
2026-05-04 19:13 51.63555 -0.65363 6270 ft 235 kts 231°
2026-05-04 19:13 51.62506 -0.67388 5932 ft 235 kts 231°
2026-05-04 19:14 51.61460 -0.69408 5601 ft 235 kts 231°
2026-05-04 19:14 51.60416 -0.71423 5288 ft 234 kts 231°
2026-05-04 19:14 51.59373 -0.73432 4969 ft 234 kts 231°
2026-05-04 19:14 51.58340 -0.75407 4659 ft 233 kts 231°
2026-05-04 19:15 51.57299 -0.77408 4305 ft 234 kts 231°
2026-05-04 19:15 51.56265 -0.79422 4009 ft 232 kts 231°
2026-05-04 19:15 51.55235 -0.81454 3608 ft 235 kts 231°
2026-05-04 19:15 51.54202 -0.83507 3218 ft 238 kts 231°
2026-05-04 19:16 51.53153 -0.85566 3003 ft 236 kts 226°
2026-05-04 19:16 51.51778 -0.86995 3015 ft 236 kts 194°
2026-05-04 19:16 51.50180 -0.87082 3005 ft 225 kts 163°
2026-05-04 19:16 51.48843 -0.86078 3000 ft 203 kts 137°
2026-05-04 19:17 51.47967 -0.84419 3004 ft 190 kts 114°
2026-05-04 19:17 51.47581 -0.82446 2999 ft 183 kts 93°
2026-05-04 19:17 51.47571 -0.80418 3007 ft 181 kts 87°
2026-05-04 19:17 51.47587 -0.78411 3050 ft 183 kts 88°
2026-05-04 19:18 51.47601 -0.76391 3010 ft 181 kts 88°
2026-05-04 19:18 51.47614 -0.74380 3005 ft 179 kts 87°
2026-05-04 19:18 51.47626 -0.72377 2955 ft 181 kts 87°
2026-05-04 19:18 51.47638 -0.70369 2784 ft 180 kts 88°
2026-05-04 19:19 51.47650 -0.68362 2558 ft 179 kts 87°
2026-05-04 19:19 51.47662 -0.66369 2322 ft 178 kts 87°
2026-05-04 19:19 51.47672 -0.64386 2080 ft 176 kts 86°
2026-05-04 19:19 51.47682 -0.62467 1851 ft 165 kts 86°
2026-05-04 19:20 51.47690 -0.60778 1642 ft 146 kts 87°
2026-05-04 19:20 51.47698 -0.59203 1450 ft 138 kts 86°
2026-05-04 19:20 51.47706 -0.57680 1258 ft 135 kts 86°
2026-05-04 19:20 51.47713 -0.56184 1077 ft 134 kts 86°
2026-05-04 19:21 51.47721 -0.54684 886 ft 136 kts 86°
2026-05-04 19:21 51.47728 -0.53162 700 ft 136 kts 86°
2026-05-04 19:21 51.47735 -0.51638 524 ft 139 kts 88°
2026-05-04 19:21 51.47741 -0.50117 333 ft 135 kts 86°
2026-05-04 19:22 51.47748 -0.48600 154 ft 136 kts 86°
2026-05-04 19:22 51.47754 -0.47175 91 ft 110 kts 89°
2026-05-04 19:22 51.47754 -0.46205 87 ft 61 kts 90°
2026-05-04 19:22 51.47756 -0.45629 88 ft 38 kts 90°
2026-05-04 19:23 51.47650 -0.45466 86 ft 21 kts 179°
2026-05-04 19:23 51.47596 -0.45630 89 ft 15 kts 274°
2026-05-04 19:23 51.47597 -0.45812 86 ft 17 kts 269°
2026-05-04 19:23 51.47596 -0.46017 88 ft 19 kts 270°
2026-05-04 19:24 51.47596 -0.46246 91 ft 22 kts 269°
2026-05-04 19:24 51.47594 -0.46498 88 ft 24 kts 269°
2026-05-04 19:24 51.47593 -0.46773 86 ft 26 kts 269°
2026-05-04 19:24 51.47583 -0.47057 88 ft 25 kts 271°
2026-05-04 19:25 51.47582 -0.47348 86 ft 26 kts 270°
2026-05-04 19:25 51.47581 -0.47644 89 ft 28 kts 269°
2026-05-04 19:25 51.47580 -0.47929 88 ft 26 kts 269°
2026-05-04 19:25 51.47579 -0.48197 89 ft 22 kts 269°
2026-05-04 19:26 51.47569 -0.48428 86 ft 21 kts 242°
2026-05-04 19:26 51.47486 -0.48574 88 ft 19 kts 270°
2026-05-04 19:26 51.47486 -0.48740 88 ft 15 kts 268°
2026-05-04 19:26 51.47460 -0.48843 86 ft 8 kts 188°
2026-05-04 19:27 51.47426 -0.48829 87 ft 2 kts 175°
2026-05-04 19:27 51.47415 -0.48829 86 ft 0 kts 179°
2026-05-04 19:27 51.47408 -0.48829 86 ft 1 kts 179°
2026-05-04 19:27 51.47405 -0.48829 86 ft 0 kts 179°